TimeCEST,TemperatureF,Dew PointF,Humidity,Sea Level PressureIn,VisibilityMPH,Wind Direction,Wind SpeedMPH,Gust SpeedMPH,PrecipitationIn,Events,Conditions,WindDirDegrees,DateUTC
12:45 AM,64.4,64.4,100,30.04,-9999.0,Calm,Calm,-,N/A,,Clear,0,2013-06-16 22:45:00
1:45 AM,64.4,62.6,94,30.04,-9999.0,West,2.3,-,N/A,,Clear,270,2013-06-16 23:45:00
2:00 AM,64,62,90,30.04,12,West,2.2,,,,Partly Cloudy,270,2013-06-17 00:00:00
2:45 AM,64.4,62.6,94,30.04,-9999.0,NNW,3.5,-,N/A,,Clear,340,2013-06-17 00:45:00
3:45 AM,62.6,60.8,94,30.04,-9999.0,NNE,1.2,-,N/A,,Clear,30,2013-06-17 01:45:00
4:45 AM,60.8,60.8,100,30.04,-9999.0,Calm,Calm,-,N/A,,Clear,0,2013-06-17 02:45:00
5:45 AM,62.6,62.6,100,30.04,-9999.0,North,1.2,-,N/A,,Clear,360,2013-06-17 03:45:00
6:15 AM,68.0,66.2,94,30.04,-9999.0,NNE,2.3,-,N/A,,Clear,20,2013-06-17 04:15:00
6:45 AM,73.4,68.0,83,30.04,-9999.0,NE,3.5,-,N/A,,Clear,40,2013-06-17 04:45:00
7:15 AM,77.0,66.2,69,30.04,-9999.0,Calm,Calm,-,N/A,,Clear,0,2013-06-17 05:15:00
7:45 AM,80.6,68.0,65,30.06,-9999.0,Calm,Calm,-,N/A,,Clear,0,2013-06-17 05:45:00
8:00 AM,80,67,57,30.04,19,Calm,Calm,,,,Partly Cloudy,,2013-06-17 06:00:00
8:15 AM,80.6,64.4,58,30.06,-9999.0,SE,1.2,-,N/A,,Clear,130,2013-06-17 06:15:00
8:45 AM,82.4,62.6,51,30.06,-9999.0,ESE,3.5,-,N/A,,Clear,110,2013-06-17 06:45:00
9:15 AM,82.4,64.4,54,30.06,-9999.0,SE,4.6,-,N/A,,Clear,140,2013-06-17 07:15:00
9:45 AM,84.2,64.4,51,30.06,-9999.0,ESE,3.5,-,N/A,,Clear,120,2013-06-17 07:45:00
10:15 AM,86.0,60.8,43,30.06,-9999.0,SE,3.5,-,N/A,,Clear,140,2013-06-17 08:15:00
10:45 AM,86.0,59.0,40,30.06,-9999.0,ESE,3.5,-,N/A,,Clear,110,2013-06-17 08:45:00
11:15 AM,87.8,60.8,40,30.06,-9999.0,SSE,3.5,-,N/A,,Clear,160,2013-06-17 09:15:00
11:45 AM,87.8,59.0,38,30.06,-9999.0,ESE,3.5,-,N/A,,Clear,120,2013-06-17 09:45:00
12:15 PM,89.6,60.8,38,30.06,-9999.0,SSE,4.6,-,N/A,,Clear,160,2013-06-17 10:15:00
12:45 PM,89.6,59.0,36,30.06,-9999.0,South,3.5,-,N/A,,Clear,190,2013-06-17 10:45:00
1:15 PM,89.6,62.6,40,30.06,-9999.0,South,4.6,-,N/A,,Clear,190,2013-06-17 11:15:00
1:45 PM,89.6,60.8,38,30.04,-9999.0,ESE,3.5,-,N/A,,Clear,110,2013-06-17 11:45:00
2:00 PM,90,61,27,30.03,31,ESE,4.5,,,,Partly Cloudy,110,2013-06-17 12:00:00
2:15 PM,91.4,60.8,36,30.04,-9999.0,ENE,2.3,-,N/A,,Clear,60,2013-06-17 12:15:00
2:45 PM,89.6,57.2,33,30.04,-9999.0,East,4.6,-,N/A,,Clear,100,2013-06-17 12:45:00
3:15 PM,91.4,64.4,41,30.04,-9999.0,SSW,4.6,-,N/A,,Clear,210,2013-06-17 13:15:00
3:45 PM,91.4,57.2,31,30.04,-9999.0,WSW,2.3,-,N/A,,Clear,250,2013-06-17 13:45:00
4:15 PM,91.4,57.2,31,30.04,-9999.0,ESE,2.3,-,N/A,,Clear,120,2013-06-17 14:15:00
4:45 PM,91.4,57.2,31,30.04,-9999.0,NW,2.3,-,N/A,,Clear,310,2013-06-17 14:45:00
5:15 PM,91.4,59.0,34,30.04,-9999.0,Calm,Calm,-,N/A,,Clear,0,2013-06-17 15:15:00
5:45 PM,91.4,60.8,36,30.01,-9999.0,Calm,Calm,-,N/A,,Clear,0,2013-06-17 15:45:00
6:15 PM,91.4,64.4,41,30.01,-9999.0,North,2.3,-,N/A,,Clear,350,2013-06-17 16:15:00
6:45 PM,89.6,60.8,38,30.01,-9999.0,Calm,Calm,-,N/A,,Clear,0,2013-06-17 16:45:00
7:15 PM,87.8,64.4,46,30.01,-9999.0,South,2.3,-,N/A,,Clear,190,2013-06-17 17:15:00
7:45 PM,86.0,69.8,58,30.01,-9999.0,South,1.2,-,N/A,,Clear,180,2013-06-17 17:45:00
8:00 PM,86,69,47,30.00,31,South,2.2,,,,Partly Cloudy,180,2013-06-17 18:00:00
8:15 PM,82.4,66.2,58,30.04,-9999.0,SE,3.5,-,N/A,,Clear,140,2013-06-17 18:15:00
8:45 PM,78.8,66.2,65,30.04,-9999.0,SE,2.3,-,N/A,,Clear,130,2013-06-17 18:45:00
9:15 PM,75.2,66.2,73,30.04,-9999.0,ESE,3.5,-,N/A,,Clear,120,2013-06-17 19:15:00
9:45 PM,73.4,64.4,73,30.04,-9999.0,East,3.5,-,N/A,,Clear,90,2013-06-17 19:45:00
10:45 PM,71.6,64.4,78,30.04,-9999.0,SE,3.5,-,N/A,,Clear,130,2013-06-17 20:45:00
11:45 PM,69.8,64.4,83,30.04,-9999.0,SSE,2.3,-,N/A,,Clear,160,2013-06-17 21:45:00